START_TIME,STEP,MOV.,M6,t_acc.,M7,t_acc.,M19,t_acc.,H36,t_acc.
1979-07-01 12:19:09.460 ,7,0,,0,,0,,0,,0
1979-07-01 12:19:21.460 ,7,0,,0,,0,,0,,0
1979-07-01 12:19:16.060 ,4,1,0.,12.0,0.,12.0,0.,12.0,0.,12.0
1979-07-01 12:19:28.060 ,4,1,0.,12.0,0.,12.0,0.,12.0,0.,12.0
1979-07-01 12:19:40.060 ,0,0,0.,12.0,0.,12.0,0.,12.0,0.,12.0
1979-07-01 12:19:52.060 ,0,0,0.,12.0,0.,12.0,0.,12.0,0.,12.0
1979-07-01 12:20:04.060 ,0,0,,0,,0,,0,,0
1979-07-01 12:20:16.060 ,0,0,,0,,0,,0,,0
1979-07-01 12:20:28.060 ,0,0,0.,12.0,0.,12.0,0.,12.0,0.,12.0
1979-07-01 12:20:40.060 ,0,0,0.,12.0,0.,12.0,0.,12.0,0.,12.0
1979-07-01 12:20:52.060 ,4,1,0.,12.0,0.,12.0,0.,12.0,0.,12.0
1979-07-01 12:21:04.060 ,4,1,0.,12.0,0.,12.0,0.,12.0,0.,12.0
1979-07-01 12:21:16.060 ,0,1,0.,12.0,0.,12.0,0.,12.0,0.,12.0
1979-07-01 12:21:28.060 ,0,1,0.,12.0,0.,12.0,0.,12.0,0.,12.0
1979-07-01 12:21:40.060 ,3,1,0.,12.0,0.,12.0,0.,12.0,0.,12.0
1979-07-01 12:21:52.060 ,3,1,0.,12.0,0.,12.0,0.,12.0,0.,12.0
1979-07-01 12:22:04.060 ,7,1,0.,12.0,0.,12.0,0.,12.0,0.,12.0
1979-07-01 12:22:16.060 ,7,1,0.,12.0,0.,12.0,0.,12.0,0.,12.0
1979-07-01 12:22:28.060 ,4,1,0.,12.0,0.,12.0,0.,12.0,0.,12.0
1979-07-01 12:22:40.060 ,4,1,0.,12.0,0.,12.0,0.,12.0,0.,12.0
1979-07-01 12:22:52.060 ,0,1,0.,12.0,0.,12.0,0.,12.0,0.,12.0
1979-07-01 12:23:04.060 ,0,1,0.,12.0,0.,12.0,0.,12.0,0.,12.0
1979-07-01 12:23:16.060 ,3,1,0.,12.0,0.,12.0,0.,12.0,0.,12.0
1979-07-01 12:23:28.060 ,3,1,0.,12.0,0.,12.0,0.,12.0,0.,12.0
1979-07-01 12:23:40.060 ,7,1,0.,12.0,0.,12.0,0.,12.0,0.,12.0
1979-07-01 12:23:52.060 ,7,1,0.,12.0,0.,12.0,0.,12.0,0.,12.0
1979-07-01 12:24:04.060 ,4,1,0.,12.0,0.,12.0,0.,12.0,0.,12.0
1979-07-01 12:24:16.060 ,4,1,0.,12.0,0.,12.0,0.,12.0,0.,12.0
1979-07-01 12:24:28.060 ,0,1,0.,12.0,0.,12.0,0.,12.0,0.,12.0
1979-07-01 12:24:40.060 ,0,1,0.,12.0,0.,12.0,0.,12.0,0.,12.0
1979-07-01 12:24:52.060 ,3,1,0.,12.0,0.,12.0,0.,12.0,0.,12.0
1979-07-01 12:25:04.060 ,3,1,0.,12.0,0.,12.0,0.,12.0,0.,12.0
1979-07-01 12:25:16.060 ,7,1,0.,12.0,0.,12.0,0.,12.0,0.,12.0
1979-07-01 12:25:28.060 ,7,1,0.,12.0,0.,12.0,0.,12.0,0.,12.0
1979-07-01 12:25:40.060 ,4,1,0.,12.0,0.,12.0,0.,12.0,0.,12.0
1979-07-01 12:25:52.060 ,4,1,0.,12.0,0.,12.0,0.,12.0,0.,12.0
1979-07-01 12:26:04.060 ,0,1,0.,12.0,0.,12.0,0.,12.0,0.,12.0
1979-07-01 12:26:16.060 ,0,1,0.,12.0,0.,12.0,0.,12.0,0.,12.0
1979-07-01 12:26:28.060 ,3,1,0.,12.0,0.,12.0,0.,12.0,0.,12.0
1979-07-01 12:26:40.060 ,3,1,0.,12.0,0.,12.0,0.,12.0,0.,12.0
1979-07-01 12:26:52.060 ,7,1,0.,12.0,0.,12.0,0.,12.0,0.,12.0
1979-07-01 12:27:04.060 ,7,1,0.,12.0,0.,12.0,0.,12.0,0.,12.0
1979-07-01 12:27:16.060 ,4,1,0.,12.0,0.,12.0,0.,12.0,0.,12.0
1979-07-01 12:27:28.060 ,4,1,0.,12.0,0.,12.0,0.,12.0,0.,12.0
1979-07-01 12:27:40.060 ,0,1,0.,12.0,0.,12.0,0.,12.0,0.,12.0
1979-07-01 12:27:52.060 ,0,1,0.,12.0,0.,12.0,0.,12.0,0.,12.0
1979-07-01 12:28:04.060 ,3,1,0.,12.0,0.,12.0,0.,12.0,0.,12.0
1979-07-01 12:28:16.060 ,3,1,0.,12.0,0.,12.0,0.,12.0,0.,12.0
1979-07-01 12:28:28.060 ,7,1,0.,12.0,0.,12.0,0.,12.0,0.,12.0
1979-07-01 12:28:40.060 ,7,1,0.,12.0,0.,12.0,0.,12.0,0.,12.0
1979-07-01 12:28:28.060 ,7,1,0.,12.0,0.,12.0,0.,12.0,0.,12.0
1979-07-01 12:28:40.060 ,7,1,0.,12.0,0.,12.0,0.,12.0,0.,12.0
1979-07-01 12:28:52.060 ,4,1,0.,12.0,0.,12.0,0.,12.0,0.,12.0
1979-07-01 12:29:04.060 ,4,1,0.,12.0,0.,12.0,0.,12.0,0.,12.0
1979-07-01 12:29:16.060 ,0,1,0.,12.0,0.,12.0,0.,12.0,0.,12.0
1979-07-01 12:29:28.060 ,0,1,0.,12.0,0.,12.0,0.,12.0,0.,12.0
1979-07-01 12:29:40.060 ,0,0,0.,12.0,0.,12.0,0.,12.0,0.,12.0
1979-07-01 12:29:52.060 ,0,0,0.,12.0,0.,12.0,0.,12.0,0.,12.0
1979-07-01 12:30:04.060 ,0,0,0.,12.0,0.,12.0,0.,12.0,0.,12.0
1979-07-01 12:30:16.060 ,0,0,0.,12.0,0.,12.0,0.,12.0,0.,12.0
1979-07-01 12:30:28.060 ,5,1,0.,12.0,0.,12.0,0.,12.0,0.,12.0
1979-07-01 12:30:40.060 ,5,1,0.,12.0,0.,12.0,0.,12.0,0.,12.0
1979-07-01 12:30:52.060 ,5,0,0.,12.0,0.,12.0,0.,12.0,0.,12.0
1979-07-01 12:31:04.060 ,5,0,0.,12.0,0.,12.0,0.,12.0,0.,12.0
1979-07-01 12:31:16.060 ,4,1,0.,12.0,0.,12.0,0.,12.0,0.,12.0
1979-07-01 12:31:28.060 ,4,1,0.,12.0,0.,12.0,0.,12.0,0.,12.0
1979-07-01 12:31:40.060 ,4,0,0.,12.0,0.,12.0,0.,12.0,0.,12.0
1979-07-01 12:31:52.060 ,4,0,0.,12.0,0.,12.0,0.,12.0,0.,12.0
1979-07-01 12:32:04.060 ,3,1,0.,12.0,0.,12.0,0.,12.0,0.,12.0
1979-07-01 12:32:16.060 ,3,1,0.,12.0,0.,12.0,0.,12.0,0.,12.0
1979-07-01 12:32:28.060 ,3,0,0.,12.0,0.,12.0,0.,12.0,0.,12.0
1979-07-01 12:32:40.060 ,3,0,0.,12.0,0.,12.0,0.,12.0,0.,12.0
1979-07-01 12:32:52.060 ,2,1,0.,12.0,0.,12.0,0.,12.0,0.,12.0
1979-07-01 12:33:04.060 ,2,1,0.,12.0,0.,12.0,0.,12.0,0.,12.0
1979-07-01 12:33:16.060 ,2,0,0.,12.0,0.,12.0,0.,12.0,0.,12.0
1979-07-01 12:33:28.060 ,2,0,0.,12.0,0.,12.0,0.,12.0,0.,12.0
1979-07-01 12:33:40.060 ,1,1,0.,12.0,0.,12.0,0.,12.0,0.,12.0
1979-07-01 12:33:52.060 ,1,1,0.,12.0,0.,12.0,0.,12.0,0.,12.0
1979-07-01 12:34:04.060 ,1,0,0.,12.0,0.,12.0,0.,12.0,0.,12.0
1979-07-01 12:34:16.060 ,1,0,0.,12.0,0.,12.0,0.,12.0,0.,12.0
1979-07-01 12:34:28.060 ,0,1,0.,12.0,0.,12.0,0.,12.0,0.,12.0
1979-07-01 12:34:40.060 ,0,1,0.,12.0,0.,12.0,0.,12.0,0.,12.0
1979-07-01 12:34:52.060 ,0,0,0.,12.0,0.,12.0,0.,12.0,0.,12.0
1979-07-01 12:35:04.060 ,0,0,0.,12.0,0.,12.0,0.,12.0,0.,12.0
1979-07-01 12:35:16.060 ,0,1,0.,12.0,0.,12.0,0.,12.0,0.,12.0
1979-07-01 12:35:28.060 ,0,1,0.,12.0,0.,12.0,0.,12.0,0.,12.0
1979-07-01 12:35:40.060 ,0,0,0.,12.0,0.,12.0,0.,12.0,0.,12.0
1979-07-01 12:35:52.060 ,0,0,0.,12.0,0.,12.0,0.,12.0,0.,12.0
1979-07-01 12:36:04.060 ,1,1,0.,12.0,0.,12.0,0.,12.0,0.,12.0
1979-07-01 12:36:16.060 ,1,1,0.,12.0,0.,12.0,0.,12.0,0.,12.0
1979-07-01 12:36:28.060 ,1,0,0.,12.0,0.,12.0,0.,12.0,0.,12.0
1979-07-01 12:36:40.060 ,1,0,0.,12.0,0.,12.0,0.,12.0,0.,12.0
1979-07-01 12:36:52.060 ,2,1,0.,12.0,0.,12.0,0.,12.0,0.,12.0
1979-07-01 12:37:04.060 ,2,1,0.,12.0,0.,12.0,0.,12.0,0.,12.0
1979-07-01 12:37:16.060 ,2,0,0.,12.0,0.,12.0,0.,12.0,0.,12.0
1979-07-01 12:37:28.060 ,2,0,0.,12.0,0.,12.0,0.,12.0,0.,12.0
1979-07-01 12:37:40.060 ,3,1,0.,12.0,0.,12.0,0.,12.0,0.,12.0
1979-07-01 12:37:52.060 ,3,1,0.,12.0,0.,12.0,0.,12.0,0.,12.0
1979-07-01 12:38:04.060 ,3,0,0.,12.0,0.,12.0,0.,12.0,0.,12.0
1979-07-01 12:38:16.060 ,3,0,0.,12.0,0.,12.0,0.,12.0,0.,12.0
1979-07-01 12:38:28.060 ,4,1,0.,12.0,0.,12.0,0.,12.0,0.,12.0
1979-07-01 12:38:40.060 ,4,1,0.,12.0,0.,12.0,0.,12.0,0.,12.0
1979-07-01 12:38:52.060 ,4,0,0.,12.0,0.,12.0,0.,12.0,0.,12.0
1979-07-01 12:39:04.060 ,4,0,0.,12.0,0.,12.0,0.,12.0,0.,12.0
1979-07-01 12:39:16.060 ,5,1,0.,12.0,0.,12.0,0.,12.0,0.,12.0
1979-07-01 12:39:28.060 ,5,1,0.,12.0,0.,12.0,0.,12.0,0.,12.0
1979-07-01 12:39:40.060 ,5,0,0.,12.0,0.,12.0,0.,12.0,0.,12.0
1979-07-01 12:39:52.060 ,5,0,0.,12.0,0.,12.0,0.,12.0,0.,12.0
1979-07-01 12:40:04.060 ,6,1,0.,12.0,0.,12.0,0.,12.0,0.,12.0
1979-07-01 12:40:16.060 ,6,1,0.,12.0,0.,12.0,0.,12.0,0.,12.0
1979-07-01 12:40:28.060 ,6,0,0.,12.0,0.,12.0,0.,12.0,0.,12.0
1979-07-01 12:40:40.060 ,6,0,0.,12.0,0.,12.0,0.,12.0,0.,12.0
1979-07-01 12:40:52.060 ,7,1,0.,12.0,0.,12.0,0.,12.0,0.,12.0
1979-07-01 12:41:04.060 ,7,1,0.,12.0,0.,12.0,0.,12.0,0.,12.0
1979-07-01 12:41:16.060 ,7,0,0.,12.0,0.,12.0,0.,12.0,0.,12.0
1979-07-01 12:41:28.060 ,7,0,0.,12.0,0.,12.0,0.,12.0,0.,12.0
1979-07-01 12:41:40.060 ,7,1,0.,12.0,0.,12.0,0.,12.0,0.,12.0
1979-07-01 12:41:52.060 ,7,1,0.,12.0,0.,12.0,0.,12.0,0.,12.0
1979-07-01 12:42:04.060 ,7,0,0.,12.0,0.,12.0,0.,12.0,0.,12.0
1979-07-01 12:42:16.060 ,7,0,0.,12.0,0.,12.0,0.,12.0,0.,12.0
1979-07-01 12:42:28.060 ,6,1,0.,12.0,0.,12.0,0.,12.0,0.,12.0
1979-07-01 12:42:40.060 ,6,1,0.,12.0,0.,12.0,0.,12.0,0.,12.0
1979-07-01 12:42:52.060 ,6,0,0.,12.0,0.,12.0,0.,12.0,0.,12.0
1979-07-01 12:43:04.060 ,6,0,0.,12.0,0.,12.0,0.,12.0,0.,12.0
1979-07-01 12:43:16.060 ,5,1,0.,12.0,0.,12.0,0.,12.0,0.,12.0
1979-07-01 12:43:28.060 ,5,1,0.,12.0,0.,12.0,0.,12.0,0.,12.0
1979-07-01 12:43:40.060 ,5,0,0.,12.0,0.,12.0,0.,12.0,0.,12.0
1979-07-01 12:43:52.060 ,5,0,0.,12.0,0.,12.0,0.,12.0,0.,12.0
1979-07-01 12:44:04.060 ,4,1,0.,12.0,0.,12.0,0.,12.0,0.,12.0
1979-07-01 12:44:16.060 ,4,1,0.,12.0,0.,12.0,0.,12.0,0.,12.0
1979-07-01 12:44:28.060 ,4,0,0.,12.0,0.,12.0,0.,12.0,0.,12.0
1979-07-01 12:44:40.060 ,4,0,0.,12.0,0.,12.0,0.,12.0,0.,12.0
1979-07-01 12:44:52.060 ,3,1,0.,12.0,0.,12.0,0.,12.0,0.,12.0
1979-07-01 12:45:04.060 ,3,1,0.,12.0,0.,12.0,0.,12.0,0.,12.0
1979-07-01 12:45:16.060 ,3,0,0.,12.0,0.,12.0,0.,12.0,0.,12.0
1979-07-01 12:45:28.060 ,3,0,0.,12.0,0.,12.0,0.,12.0,0.,12.0
1979-07-01 12:45:40.060 ,2,1,0.,12.0,0.,12.0,0.,12.0,0.,12.0
1979-07-01 12:45:52.060 ,2,1,0.,12.0,0.,12.0,0.,12.0,0.,12.0
1979-07-01 12:46:04.060 ,2,0,0.,12.0,0.,12.0,0.,12.0,0.,12.0
1979-07-01 12:46:16.060 ,2,0,0.,12.0,0.,12.0,0.,12.0,0.,12.0
1979-07-01 12:46:28.060 ,1,1,0.,12.0,0.,12.0,0.,12.0,0.,12.0
1979-07-01 12:46:40.060 ,1,1,0.,12.0,0.,12.0,0.,12.0,0.,12.0
1979-07-01 12:46:52.060 ,1,0,0.,12.0,0.,12.0,0.,12.0,0.,12.0
1979-07-01 12:47:04.060 ,1,0,0.,12.0,0.,12.0,0.,12.0,0.,12.0
1979-07-01 12:47:16.060 ,0,1,0.,12.0,0.,12.0,0.,12.0,0.,12.0
1979-07-01 12:47:28.060 ,0,1,0.,12.0,0.,12.0,0.,12.0,0.,12.0
1979-07-01 12:47:40.060 ,0,0,0.,12.0,0.,12.0,0.,12.0,0.,12.0
1979-07-01 12:47:52.060 ,0,0,0.,12.0,0.,12.0,0.,12.0,0.,12.0
1979-07-01 12:48:04.060 ,0,1,0.,12.0,0.,12.0,0.,12.0,0.,12.0
1979-07-01 12:48:16.060 ,0,1,0.,12.0,0.,12.0,0.,12.0,0.,12.0
1979-07-01 12:48:28.060 ,0,0,0.,12.0,0.,12.0,0.,12.0,0.,12.0
1979-07-01 12:48:40.060 ,0,0,0.,12.0,0.,12.0,0.,12.0,0.,12.0
1979-07-01 12:48:52.060 ,1,1,0.,12.0,0.,12.0,0.,12.0,0.,12.0
1979-07-01 12:49:04.060 ,1,1,0.,12.0,0.,12.0,0.,12.0,0.,12.0
1979-07-01 12:49:16.060 ,1,0,0.,12.0,0.,12.0,0.,12.0,0.,12.0
1979-07-01 12:49:28.060 ,1,0,0.,12.0,0.,12.0,0.,12.0,0.,12.0
1979-07-01 12:49:40.060 ,2,1,0.,12.0,0.,12.0,0.,12.0,0.,12.0
1979-07-01 12:49:52.060 ,2,1,0.,12.0,0.,12.0,0.,12.0,0.,12.0
1979-07-01 12:50:04.060 ,2,0,0.,12.0,0.,12.0,0.,12.0,0.,12.0
1979-07-01 12:50:16.060 ,2,0,0.,12.0,0.,12.0,0.,12.0,0.,12.0
1979-07-01 12:50:28.060 ,3,1,0.,12.0,0.,12.0,0.,12.0,0.,12.0
1979-07-01 12:50:40.060 ,3,1,0.,12.0,0.,12.0,0.,12.0,0.,12.0
1979-07-01 12:50:52.060 ,3,0,0.,12.0,0.,12.0,0.,12.0,0.,12.0
1979-07-01 12:51:04.060 ,3,0,0.,12.0,0.,12.0,0.,12.0,0.,12.0
1979-07-01 12:51:16.060 ,4,1,0.,12.0,0.,12.0,0.,12.0,0.,12.0
1979-07-01 12:51:28.060 ,4,1,0.,12.0,0.,12.0,0.,12.0,0.,12.0
1979-07-01 12:51:40.060 ,4,0,0.,12.0,0.,12.0,0.,12.0,0.,12.0
1979-07-01 12:51:52.060 ,4,0,0.,12.0,0.,12.0,0.,12.0,0.,12.0
1979-07-01 12:52:04.060 ,5,1,0.,12.0,0.,12.0,0.,12.0,0.,12.0
1979-07-01 12:52:16.060 ,5,1,0.,12.0,0.,12.0,0.,12.0,0.,12.0
1979-07-01 12:52:28.060 ,5,0,0.,12.0,0.,12.0,0.,12.0,0.,12.0
1979-07-01 12:52:40.060 ,5,0,0.,12.0,0.,12.0,0.,12.0,0.,12.0
1979-07-01 12:53:40.060 ,0,0,0.,12.0,0.,12.0,0.,12.0,0.,12.0
1979-07-01 12:53:52.060 ,0,0,0.,12.0,0.,12.0,0.,12.0,0.,12.0
1979-07-01 12:54:04.060 ,0,0,0.,12.0,0.,12.0,0.,12.0,0.,12.0
1979-07-01 12:54:16.060 ,0,0,0.,12.0,0.,12.0,0.,12.0,0.,12.0
1979-07-01 12:54:28.060 ,7,1,0.,12.0,0.,12.0,0.,12.0,0.,12.0
1979-07-01 12:54:40.060 ,7,1,0.,12.0,0.,12.0,0.,12.0,0.,12.0
1979-07-01 12:54:52.060 ,7,0,0.,12.0,0.,12.0,0.,12.0,0.,12.0
1979-07-01 12:55:04.060 ,7,0,0.,12.0,0.,12.0,0.,12.0,0.,12.0
1979-07-01 12:55:16.060 ,6,1,0.,12.0,0.,12.0,0.,12.0,0.,12.0
1979-07-01 12:55:28.060 ,6,1,0.,12.0,0.,12.0,0.,12.0,0.,12.0
1979-07-01 12:55:40.060 ,6,0,0.,12.0,0.,12.0,0.,12.0,0.,12.0
1979-07-01 12:55:52.060 ,6,0,0.,12.0,0.,12.0,0.,12.0,0.,12.0
1979-07-01 12:56:04.060 ,5,1,0.,12.0,0.,12.0,0.,12.0,0.,12.0
1979-07-01 12:56:16.060 ,5,1,0.,12.0,0.,12.0,0.,12.0,0.,12.0
1979-07-01 12:56:28.060 ,5,0,0.,12.0,0.,12.0,0.,12.0,0.,12.0
1979-07-01 12:56:40.060 ,5,0,0.,12.0,0.,12.0,0.,12.0,0.,12.0
1979-07-01 12:56:52.060 ,4,1,0.,12.0,0.,12.0,0.,12.0,0.,12.0
1979-07-01 12:57:04.060 ,4,1,0.,12.0,0.,12.0,0.,12.0,0.,12.0
1979-07-01 12:57:16.060 ,4,0,0.,12.0,0.,12.0,0.,12.0,0.,12.0
1979-07-01 12:57:28.060 ,4,0,0.,12.0,0.,12.0,0.,12.0,0.,12.0
1979-07-01 12:57:40.060 ,3,1,0.,12.0,0.,12.0,0.,12.0,0.,12.0
1979-07-01 12:57:52.060 ,3,1,0.,12.0,0.,12.0,0.,12.0,0.,12.0
1979-07-01 12:58:04.060 ,3,0,0.,12.0,0.,12.0,0.,12.0,0.,12.0
1979-07-01 12:58:16.060 ,3,0,0.,12.0,0.,12.0,0.,12.0,0.,12.0
1979-07-01 12:58:28.060 ,2,1,0.,12.0,0.,12.0,0.,12.0,0.,12.0
1979-07-01 12:58:40.060 ,2,1,0.,12.0,0.,12.0,0.,12.0,0.,12.0
1979-07-01 12:58:52.060 ,2,0,0.,12.0,0.,12.0,0.,12.0,0.,12.0
1979-07-01 12:59:04.060 ,2,0,0.,12.0,0.,12.0,0.,12.0,0.,12.0
1979-07-01 12:59:16.060 ,1,1,0.,12.0,0.,12.0,0.,12.0,0.,12.0
1979-07-01 12:59:28.060 ,1,1,0.,12.0,0.,12.0,0.,12.0,0.,12.0
1979-07-01 12:59:40.060 ,1,0,0.,12.0,0.,12.0,0.,12.0,0.,12.0
1979-07-01 12:59:52.060 ,1,0,0.,12.0,0.,12.0,0.,12.0,0.,12.0
1979-07-01 13:00:04.060 ,0,1,0.,12.0,0.,12.0,0.,12.0,0.,12.0
1979-07-01 13:00:16.060 ,0,1,0.,12.0,0.,12.0,0.,12.0,0.,12.0
1979-07-01 13:00:28.060 ,0,0,0.,12.0,0.,12.0,0.,12.0,0.,12.0
1979-07-01 13:00:40.060 ,0,0,0.,12.0,0.,12.0,0.,12.0,0.,12.0
1979-07-01 13:00:52.060 ,0,1,0.,12.0,0.,12.0,0.,12.0,0.,12.0
1979-07-01 13:01:04.060 ,0,1,0.,12.0,0.,12.0,0.,12.0,0.,12.0
1979-07-01 13:01:16.060 ,0,0,0.,12.0,0.,12.0,0.,12.0,0.,12.0
1979-07-01 13:01:28.060 ,0,0,0.,12.0,0.,12.0,0.,12.0,0.,12.0
1979-07-01 13:01:40.060 ,1,1,0.,12.0,0.,12.0,0.,12.0,0.,12.0
1979-07-01 13:01:52.060 ,1,1,0.,12.0,0.,12.0,0.,12.0,0.,12.0
1979-07-01 13:02:04.060 ,1,0,0.,12.0,0.,12.0,0.,12.0,0.,12.0
1979-07-01 13:02:16.060 ,1,0,0.,12.0,0.,12.0,0.,12.0,0.,12.0
1979-07-01 13:02:28.060 ,2,1,0.,12.0,0.,12.0,0.,12.0,0.,12.0
1979-07-01 13:02:40.060 ,2,1,0.,12.0,0.,12.0,0.,12.0,0.,12.0
1979-07-01 13:02:52.060 ,2,0,0.,12.0,0.,12.0,0.,12.0,0.,12.0
1979-07-01 13:03:04.060 ,2,0,0.,12.0,0.,12.0,0.,12.0,0.,12.0
1979-07-01 13:03:16.060 ,3,1,0.,12.0,0.,12.0,0.,12.0,0.,12.0
1979-07-01 13:03:28.060 ,3,1,0.,12.0,0.,12.0,0.,12.0,0.,12.0
1979-07-01 13:03:40.060 ,3,0,0.,12.0,0.,12.0,0.,12.0,0.,12.0
1979-07-01 13:03:52.060 ,3,0,0.,12.0,0.,12.0,0.,12.0,0.,12.0
1979-07-01 13:04:04.060 ,4,1,0.,12.0,0.,12.0,0.,12.0,0.,12.0
1979-07-01 13:04:16.060 ,4,1,0.,12.0,0.,12.0,0.,12.0,0.,12.0
1979-07-01 13:04:28.060 ,4,0,0.,12.0,0.,12.0,0.,12.0,0.,12.0
1979-07-01 13:04:40.060 ,4,0,0.,12.0,0.,12.0,0.,12.0,0.,12.0
1979-07-01 13:04:52.060 ,5,1,0.,12.0,0.,12.0,0.,12.0,0.,12.0
1979-07-01 13:05:04.060 ,5,1,0.,12.0,0.,12.0,0.,12.0,0.,12.0
1979-07-01 13:05:16.060 ,5,0,0.,12.0,0.,12.0,0.,12.0,0.,12.0
1979-07-01 13:05:28.060 ,5,0,0.,12.0,0.,12.0,0.,12.0,0.,12.0
1979-07-01 13:05:40.060 ,6,1,0.,12.0,0.,12.0,0.,12.0,0.,12.0
1979-07-01 13:05:52.060 ,6,1,0.,12.0,0.,12.0,0.,12.0,0.,12.0
1979-07-01 13:06:04.060 ,6,0,0.,12.0,0.,12.0,0.,12.0,0.,12.0
1979-07-01 13:06:16.060 ,6,0,0.,12.0,0.,12.0,0.,12.0,0.,12.0
1979-07-01 13:06:28.060 ,7,0,0.,12.0,0.,12.0,0.,12.0,0.,12.0
1979-07-01 13:06:40.060 ,7,0,0.,12.0,0.,12.0,0.,12.0,0.,12.0
1979-07-01 13:06:52.060 ,7,0,0.,12.0,0.,12.0,0.,12.0,0.,12.0
1979-07-01 13:07:04.060 ,7,0,0.,12.0,0.,12.0,0.,12.0,0.,12.0
1979-07-01 13:07:16.060 ,4,1,0.,12.0,0.,12.0,0.,12.0,0.,12.0
1979-07-01 13:07:28.060 ,4,1,0.,12.0,0.,12.0,0.,12.0,0.,12.0
1979-07-01 13:07:40.060 ,0,1,0.,12.0,0.,12.0,0.,12.0,0.,12.0
1979-07-01 13:07:52.060 ,0,1,0.,12.0,0.,12.0,0.,12.0,0.,12.0
1979-07-01 13:08:04.060 ,3,1,0.,12.0,0.,12.0,0.,12.0,0.,12.0
1979-07-01 13:08:16.060 ,3,1,0.,12.0,0.,12.0,0.,12.0,0.,12.0
1979-07-01 13:08:28.060 ,7,1,0.,12.0,0.,12.0,0.,12.0,0.,12.0
1979-07-01 13:08:40.060 ,7,1,0.,12.0,0.,12.0,0.,12.0,0.,12.0
1979-07-01 13:08:52.060 ,4,1,0.,12.0,0.,12.0,0.,12.0,0.,12.0
1979-07-01 13:09:04.060 ,4,1,0.,12.0,0.,12.0,0.,12.0,0.,12.0
1979-07-01 13:09:16.060 ,0,1,0.,12.0,0.,12.0,0.,12.0,0.,12.0
1979-07-01 13:09:28.060 ,0,1,0.,12.0,0.,12.0,0.,12.0,0.,12.0
1979-07-01 13:09:40.060 ,3,1,0.,12.0,0.,12.0,0.,12.0,0.,12.0
1979-07-01 13:09:52.060 ,3,1,0.,12.0,0.,12.0,0.,12.0,0.,12.0
1979-07-01 13:10:04.060 ,7,1,0.,12.0,0.,12.0,0.,12.0,0.,12.0
1979-07-01 13:10:16.060 ,7,1,0.,12.0,0.,12.0,0.,12.0,0.,12.0
1979-07-01 13:10:28.060 ,4,1,0.,12.0,0.,12.0,0.,12.0,0.,12.0
1979-07-01 13:10:40.060 ,4,1,0.,12.0,0.,12.0,0.,12.0,0.,12.0
1979-07-01 13:10:52.060 ,0,1,0.,12.0,0.,12.0,0.,12.0,0.,12.0
1979-07-01 13:11:04.060 ,0,1,0.,12.0,0.,12.0,0.,12.0,0.,12.0
1979-07-01 13:11:16.060 ,3,1,0.,12.0,0.,12.0,0.,12.0,0.,12.0
1979-07-01 13:11:28.060 ,3,1,0.,12.0,0.,12.0,0.,12.0,0.,12.0
1979-07-01 13:11:40.060 ,7,1,0.,12.0,0.,12.0,0.,12.0,0.,12.0
1979-07-01 13:11:52.060 ,7,1,0.,12.0,0.,12.0,0.,12.0,0.,12.0
1979-07-01 13:12:04.060 ,4,1,0.,12.0,0.,12.0,0.,12.0,0.,12.0
1979-07-01 13:12:16.060 ,4,1,0.,12.0,0.,12.0,0.,12.0,0.,12.0
1979-07-01 13:12:28.060 ,0,1,0.,12.0,0.,12.0,0.,12.0,0.,12.0
1979-07-01 13:12:40.060 ,0,1,0.,12.0,0.,12.0,0.,12.0,0.,12.0
1979-07-01 13:12:52.060 ,3,1,0.,12.0,0.,12.0,0.,12.0,0.,12.0
1979-07-01 13:13:04.060 ,3,1,0.,12.0,0.,12.0,0.,12.0,0.,12.0
1979-07-01 13:13:16.060 ,7,1,0.,12.0,0.,12.0,0.,12.0,0.,12.0
1979-07-01 13:13:28.060 ,7,1,0.,12.0,0.,12.0,0.,12.0,0.,12.0
1979-07-01 13:13:40.060 ,4,1,0.,12.0,0.,12.0,0.,12.0,0.,12.0
1979-07-01 13:13:52.060 ,4,1,0.,12.0,0.,12.0,0.,12.0,0.,12.0
1979-07-01 13:14:04.060 ,0,0,0.,12.0,0.,12.0,0.,12.0,0.,12.0
1979-07-01 13:14:16.060 ,0,0,0.,12.0,0.,12.0,0.,12.0,0.,12.0
1979-07-01 13:15:30.460 ,0,0,,0,,0,,0,,0
1979-07-01 13:15:42.460 ,0,0,0.,12.0,0.,12.0,0.,12.0,0.,12.0
1979-07-01 13:15:40.060 ,0,1,0.,12.0,0.,12.0,0.,12.0,0.,12.0
1979-07-01 13:15:52.060 ,0,1,0.,12.0,0.,12.0,0.,12.0,0.,12.0
1979-07-01 13:16:04.060 ,3,1,0.,12.0,0.,12.0,0.,12.0,0.,12.0
1979-07-01 13:16:16.060 ,3,1,0.,12.0,0.,12.0,0.,12.0,0.,12.0
1979-07-01 13:16:28.060 ,7,1,0.,12.0,0.,12.0,0.,12.0,0.,12.0
1979-07-01 13:16:40.060 ,7,1,0.,12.0,0.,12.0,0.,12.0,0.,12.0
1979-07-01 13:16:52.060 ,4,1,0.,12.0,0.,12.0,0.,12.0,0.,12.0
1979-07-01 13:17:04.060 ,4,1,0.,12.0,0.,12.0,0.,12.0,0.,12.0
1979-07-01 13:17:16.060 ,0,1,0.,12.0,0.,12.0,0.,12.0,0.,12.0
1979-07-01 13:17:28.060 ,0,1,0.,12.0,0.,12.0,0.,12.0,0.,12.0
1979-07-01 13:17:40.060 ,0,0,0.,12.0,0.,12.0,0.,12.0,0.,12.0
1979-07-01 13:17:52.060 ,0,0,0.,12.0,0.,12.0,0.,12.0,0.,12.0
1979-07-01 13:18:04.060 ,0,0,0.,12.0,0.,12.0,0.,12.0,0.,12.0
1979-07-01 13:18:16.060 ,0,0,0.,12.0,0.,12.0,0.,12.0,0.,12.0
1979-07-01 13:18:28.060 ,5,1,0.,12.0,0.,12.0,0.,12.0,0.,12.0
1979-07-01 13:18:40.060 ,5,1,0.,12.0,0.,12.0,0.,12.0,0.,12.0
1979-07-01 13:18:52.060 ,5,0,0.,12.0,0.,12.0,0.,12.0,0.,12.0
1979-07-01 13:19:04.060 ,5,0,0.,12.0,0.,12.0,0.,12.0,0.,12.0
1979-07-01 13:19:16.060 ,4,1,0.,12.0,0.,12.0,0.,12.0,0.,12.0
1979-07-01 13:19:28.060 ,4,1,0.,12.0,0.,12.0,0.,12.0,0.,12.0
1979-07-01 13:19:40.060 ,4,0,0.,12.0,0.,12.0,0.,12.0,0.,12.0
1979-07-01 13:19:52.060 ,4,0,0.,12.0,0.,12.0,0.,12.0,0.,12.0
1979-07-01 13:20:04.060 ,3,1,0.,12.0,0.,12.0,0.,12.0,0.,12.0
1979-07-01 13:20:16.060 ,3,1,0.,12.0,0.,12.0,0.,12.0,0.,12.0
1979-07-01 13:20:28.060 ,3,0,0.,12.0,0.,12.0,0.,12.0,0.,12.0
1979-07-01 13:20:40.060 ,3,0,0.,12.0,0.,12.0,0.,12.0,0.,12.0
1979-07-01 13:20:52.060 ,2,1,0.,12.0,0.,12.0,0.,12.0,0.,12.0
1979-07-01 13:21:04.060 ,2,1,0.,12.0,0.,12.0,0.,12.0,0.,12.0
1979-07-01 13:21:16.060 ,2,0,0.,12.0,0.,12.0,0.,12.0,0.,12.0
1979-07-01 13:21:28.060 ,2,0,0.,12.0,0.,12.0,0.,12.0,0.,12.0
1979-07-01 13:21:40.060 ,1,1,0.,12.0,0.,12.0,0.,12.0,0.,12.0
1979-07-01 13:21:52.060 ,1,1,0.,12.0,0.,12.0,0.,12.0,0.,12.0
1979-07-01 13:22:04.060 ,1,0,0.,12.0,0.,12.0,0.,12.0,0.,12.0
1979-07-01 13:22:16.060 ,1,0,0.,12.0,0.,12.0,0.,12.0,0.,12.0
1979-07-01 13:22:28.060 ,0,1,0.,12.0,0.,12.0,0.,12.0,0.,12.0
1979-07-01 13:22:40.060 ,0,1,0.,12.0,0.,12.0,0.,12.0,0.,12.0
1979-07-01 13:22:52.060 ,0,0,0.,12.0,0.,12.0,0.,12.0,0.,12.0
1979-07-01 13:23:04.060 ,0,0,0.,12.0,0.,12.0,0.,12.0,0.,12.0
1979-07-01 13:23:16.060 ,0,1,0.,12.0,0.,12.0,0.,12.0,0.,12.0
1979-07-01 13:23:28.060 ,0,1,0.,12.0,0.,12.0,0.,12.0,0.,12.0
1979-07-01 13:23:40.060 ,0,0,0.,12.0,0.,12.0,0.,12.0,0.,12.0
1979-07-01 13:23:52.060 ,0,0,0.,12.0,0.,12.0,0.,12.0,0.,12.0
1979-07-01 13:24:04.060 ,0,0,0.,12.0,0.,12.0,0.,12.0,0.,12.0
1979-07-01 13:24:16.060 ,0,0,,0,,0,,0,,0
1979-07-01 13:24:28.060 ,0,0,,0,,0,,0,,0
1979-07-01 13:24:40.060 ,0,0,,0,,0,,0,,0
1979-07-01 13:25:40.060 ,0,0,0.,12.0,0.,12.0,0.,12.0,0.,12.0
1979-07-01 13:25:52.060 ,0,0,0.,12.0,0.,12.0,0.,12.0,0.,12.0
1979-07-01 13:26:04.060 ,0,0,0.,12.0,0.,12.0,0.,12.0,0.,12.0
1979-07-01 13:26:16.060 ,0,0,0.,12.0,0.,12.0,0.,12.0,0.,12.0
1979-07-01 13:26:28.060 ,4,1,0.,12.0,0.,12.0,0.,12.0,0.,12.0
1979-07-01 13:26:40.060 ,4,1,0.,12.0,0.,12.0,0.,12.0,0.,12.0
1979-07-01 13:26:52.060 ,4,0,0.,12.0,0.,12.0,0.,12.0,0.,12.0
1979-07-01 13:27:04.060 ,4,0,0.,12.0,0.,12.0,0.,12.0,0.,12.0
1979-07-01 13:27:16.060 ,5,1,0.,12.0,0.,12.0,0.,12.0,0.,12.0
1979-07-01 13:27:28.060 ,5,1,0.,12.0,0.,12.0,0.,12.0,0.,12.0
1979-07-01 13:27:40.060 ,5,0,0.,12.0,0.,12.0,0.,12.0,0.,12.0
1979-07-01 13:27:52.060 ,5,0,0.,12.0,0.,12.0,0.,12.0,0.,12.0
1979-07-01 13:28:04.060 ,6,1,0.,12.0,0.,12.0,0.,12.0,0.,12.0
1979-07-01 13:28:16.060 ,6,1,0.,12.0,0.,12.0,0.,12.0,0.,12.0
1979-07-01 13:28:28.060 ,6,0,0.,12.0,0.,12.0,0.,12.0,0.,12.0
1979-07-01 13:28:40.060 ,6,0,0.,12.0,0.,12.0,0.,12.0,0.,12.0
1979-07-01 13:28:52.060 ,7,1,0.,12.0,0.,12.0,0.,12.0,0.,12.0
1979-07-01 13:29:04.060 ,7,1,0.,12.0,0.,12.0,0.,12.0,0.,12.0
1979-07-01 13:29:16.060 ,7,0,0.,12.0,0.,12.0,0.,12.0,0.,12.0
1979-07-01 13:29:28.060 ,7,0,0.,12.0,0.,12.0,0.,12.0,0.,12.0
1979-07-01 13:29:40.060 ,7,1,0.,12.0,0.,12.0,0.,12.0,0.,12.0
1979-07-01 13:29:52.060 ,7,1,0.,12.0,0.,12.0,0.,12.0,0.,12.0
1979-07-01 13:30:04.060 ,7,0,0.,12.0,0.,12.0,0.,12.0,0.,12.0
1979-07-01 13:30:16.060 ,7,0,0.,12.0,0.,12.0,0.,12.0,0.,12.0
1979-07-01 13:30:28.060 ,6,1,0.,12.0,0.,12.0,0.,12.0,0.,12.0
1979-07-01 13:30:40.060 ,6,1,0.,12.0,0.,12.0,0.,12.0,0.,12.0
1979-07-01 13:30:52.060 ,6,0,0.,12.0,0.,12.0,0.,12.0,0.,12.0
1979-07-01 13:31:04.060 ,6,0,0.,12.0,0.,12.0,0.,12.0,0.,12.0
1979-07-01 13:31:16.060 ,5,1,0.,12.0,0.,12.0,0.,12.0,0.,12.0
1979-07-01 13:31:28.060 ,5,1,0.,12.0,0.,12.0,0.,12.0,0.,12.0
1979-07-01 13:31:40.060 ,5,0,0.,12.0,0.,12.0,0.,12.0,0.,12.0
1979-07-01 13:31:52.060 ,5,0,0.,12.0,0.,12.0,0.,12.0,0.,12.0
1979-07-01 13:32:04.060 ,4,1,0.,12.0,0.,12.0,0.,12.0,0.,12.0
1979-07-01 13:32:16.060 ,4,1,0.,12.0,0.,12.0,0.,12.0,0.,12.0
1979-07-01 13:32:28.060 ,4,0,0.,12.0,0.,12.0,0.,12.0,0.,12.0
1979-07-01 13:32:40.060 ,4,0,0.,12.0,0.,12.0,0.,12.0,0.,12.0
1979-07-01 13:32:52.060 ,3,1,0.,12.0,0.,12.0,0.,12.0,0.,12.0
1979-07-01 13:33:04.060 ,3,1,0.,12.0,0.,12.0,0.,12.0,0.,12.0
1979-07-01 13:33:16.060 ,3,0,0.,12.0,0.,12.0,0.,12.0,0.,12.0
1979-07-01 13:33:28.060 ,3,0,0.,12.0,0.,12.0,0.,12.0,0.,12.0
1979-07-01 13:33:40.060 ,2,1,0.,12.0,0.,12.0,0.,12.0,0.,12.0
1979-07-01 13:33:52.060 ,2,1,0.,12.0,0.,12.0,0.,12.0,0.,12.0
1979-07-01 13:34:04.060 ,2,0,0.,12.0,0.,12.0,0.,12.0,0.,12.0
1979-07-01 13:34:16.060 ,2,0,0.,12.0,0.,12.0,0.,12.0,0.,12.0
1979-07-01 13:34:28.060 ,1,1,0.,12.0,0.,12.0,0.,12.0,0.,12.0
1979-07-01 13:34:40.060 ,1,1,0.,12.0,0.,12.0,0.,12.0,0.,12.0
1979-07-01 13:34:52.060 ,1,0,0.,12.0,0.,12.0,0.,12.0,0.,12.0
1979-07-01 13:35:04.060 ,1,0,0.,12.0,0.,12.0,0.,12.0,0.,12.0
1979-07-01 13:35:16.060 ,0,1,0.,12.0,0.,12.0,0.,12.0,0.,12.0
1979-07-01 13:35:28.060 ,0,1,0.,12.0,0.,12.0,0.,12.0,0.,12.0
1979-07-01 13:35:40.060 ,0,0,0.,12.0,0.,12.0,0.,12.0,0.,12.0
1979-07-01 13:35:52.060 ,0,0,0.,12.0,0.,12.0,0.,12.0,0.,12.0
1979-07-01 13:36:04.060 ,0,1,0.,12.0,0.,12.0,0.,12.0,0.,12.0
1979-07-01 13:36:16.060 ,0,1,0.,12.0,0.,12.0,0.,12.0,0.,12.0
1979-07-01 13:36:28.060 ,0,0,0.,12.0,0.,12.0,0.,12.0,0.,12.0
1979-07-01 13:36:40.060 ,0,0,0.,12.0,0.,12.0,0.,12.0,0.,12.0
1979-07-01 13:36:52.060 ,1,1,0.,12.0,0.,12.0,0.,12.0,0.,12.0
1979-07-01 13:37:04.060 ,1,1,0.,12.0,0.,12.0,0.,12.0,0.,12.0
1979-07-01 13:37:16.060 ,1,0,0.,12.0,0.,12.0,0.,12.0,0.,12.0
1979-07-01 13:37:28.060 ,1,0,0.,12.0,0.,12.0,0.,12.0,0.,12.0
1979-07-01 13:37:40.060 ,2,1,0.,12.0,0.,12.0,0.,12.0,0.,12.0
1979-07-01 13:37:52.060 ,2,1,0.,12.0,0.,12.0,0.,12.0,0.,12.0
1979-07-01 13:38:04.060 ,2,0,0.,12.0,0.,12.0,0.,12.0,0.,12.0
1979-07-01 13:38:16.060 ,2,0,0.,12.0,0.,12.0,0.,12.0,0.,12.0